Temp
15 12 11 13 11 13 13 12 11 13 15 14 14 15 15 17 17 15 15 14 14 16 15 15 15 14 13 13 13 13 13 13 12 12 11 10 10 9 9 9 9 9 9 9
12 11 12 14 12 13 13 13 12 13 14 14 13 14 13 14 16 17 16 15 16 14 15 15 15 14 13 12 12 12 12 12 12 11 10 9 9 8 8 7 8 8 8 8
11 13 13 13 13 12 12 12 12 13 14 15 14 15 14 16 16 19 18 18 16 16 15 14 14 13 12 11 12 12 12 12 11 10 9 8 8 7 7 6 7 7 7 7
11 12 13 13 13 13 12 14 14 14 13 12 14 14 15 15 15 16 17 17 17 15 14 14 14 13 11 11 11 11 11 11 10 9 9 9 9 8 6 6 6 6 6 7
11 13 12 12 13 13 13 14 13 13 12 12 13 11 15 15 15 15 15 18 17 16 15 14 13 12 10 10 9 9 9 9 9 9 8 7 7 6 6 5 5 5 5 6
10 13 13 12 13 13 13 13 12 12 11 10 14 12 15 15 15 16 16 19 19 17 14 11 9 9 9 8 8 8 8 8 8 7 6 6 7 6 5 5 5 5 5 5
9 10 11 12 11 12 11 11 8 9 9 12 13 13 15 15 15 14 14 16 16 15 12 9 8 8 8 7 7 7 8 7 7 6 6 6 6 5 5 5 4 5 5 4
8 9 11 11 11 11 10 10 10 10 10 12 13 12 13 14 10 9 8 8 9 9 7 6 6 7 6 6 7 7 7 6 6 6 6 5 5 5 5 4 4 3 3 3
7 7 10 11 11 11 11 9 12 10 11 10 10 11 13 10 9 8 7 5 5 4 4 4 4 6 7 7 6 6 6 5 5 5 5 4 4 4 4 3 3 2 2 2
9 7 9 10 11 11 11 11 9 6 9 10 10 10 8 6 7 7 5 4 4 4 4 5 7 7 7 6 6 5 4 5 4 4 3 3 4 4 3 2 2 2 1 1
9 7 8 10 10 9 9 8 6 7 6 8 10 8 8 6 6 6 6 5 4 4 5 6 7 6 6 5 4 4 5 4 3 3 3 3 3 2 2 2 1 0 -0 -0
8 8 6 7 9 9 8 7 7 6 6 6 7 8 6 5 5 4 6 5 5 5 4 4 4 5 5 5 5 5 4 3 3 3 3 2 2 1 1 0 -0 -1 -1 -2
9 5 4 6 7 8 6 5 5 5 4 5 6 7 5 5 5 5 5 4 5 5 4 3 4 4 4 4 4 4 3 2 2 2 1 1 1 1 0 -1 -1 -2 -2 -3
8 7 5 4 6 6 6 6 6 6 4 6 6 7 7 5 6 6 5 4 5 6 6 4 4 4 4 4 4 2 2 2 2 2 1 1 0 -1 -2 -2 -3 -4 -4 -4
4 4 5 6 6 6 6 6 7 6 6 6 7 7 8 8 6 7 7 5 5 6 5 5 5 4 3 3 3 2 2 2 2 2 1 -0 -1 -2 -3 -3 -3 -4 -4 -5
3 3 4 4 6 6 5 6 6 6 7 8 7 7 9 9 9 8 8 7 6 6 6 6 5 4 3 3 2 2 1 1 1 0 -1 -1 -2 -2 -3 -3 -5 -5 -5 -5
3 3 3 4 4 5 2 5 5 4 6 7 6 7 7 7 7 7 6 7 9 8 8 7 7 5 3 2 2 1 1 0 -0 -1 -1 -2 -3 -3 -4 -4 -5 -5 -5 -6
2 2 1 2 4 1 5 6 7 6 6 7 7 6 5 6 7 6 6 6 7 9 9 7 5 3 1 1 1 0 -1 -1 -2 -3 -2 -3 -4 -4 -5 -5 -5 -5 -6 -6
3 2 2 2 3 4 5 6 6 6 6 6 6 5 6 7 6 6 9 9 9 8 8 7 4 2 1 1 0 -1 -2 -2 -3 -3 -3 -4 -4 -4 -5 -5 -6 -6 -6 -6
3 3 3 2 1 1 4 6 7 7 3 4 4 4 3 4 3 2 7 7 6 5 4 3 1 0 1 -0 -0 -1 -3 -4 -4 -4 -4 -4 -5 -5 -5 -6 -6 -6 -7 -7
1 1 2 2 2 3 4 5 6 3 3 4 4 4 4 2 2 5 4 3 2 1 1 0 -0 0 0 0 -1 -2 -3 -4 -4 -5 -5 -5 -6 -6 -6 -6 -7 -7 -7 -7
1 -2 -2 -1 0 0 5 5 5 4 5 5 5 5 5 5 4 2 2 2 2 1 -1 -1 -2 -1 -1 -2 -2 -2 -3 -4 -5 -5 -5 -6 -6 -6 -6 -7 -7 -7 -7 -8
2 1 1 -0 -1 2 5 5 6 5 5 5 4 6 6 4 4 3 1 -0 1 -1 -1 -2 -2 -2 -2 -2 -3 -4 -5 -5 -5 -5 -6 -6 -7 -7 -7 -7 -6 -7 -8 -8
2 2 1 2 2 2 4 5 5 5 5 4 5 5 5 5 3 2 0 -0 -0 -2 -2 -3 -2 -2 -3 -4 -4 -4 -4 -4 -5 -6 -6 -7 -7 -7 -7 -7 -7 -7 -8 -8
-1 -0 1 1 1 3 4 4 5 4 4 4 4 4 4 4 4 2 2 -0 -1 -1 -2 -2 -2 -3 -4 -4 -4 -5 -4 -5 -6 -6 -6 -7 -7 -7 -7 -7 -7 -8 -7 -8
-1 -1 -2 -3 1 2 2 3 3 3 3 4 3 4 4 3 3 2 1 0 -0 -2 -2 -2 -3 -4 -4 -4 -5 -5 -5 -5 -5 -6 -6 -6 -7 -7 -7 -7 -7 -8 -8 -8
Height
1472 1478 1479 1473 1477 1475 1476 1479 1481 1472 1465 1469 1461 1453 1447 1439 1438 1437 1439 1440 1441 1442 1447 1453 1457 1462 1467 1471 1472 1475 1478 1482 1484 1486 1489 1492 1492 1494 1495 1495 1496 1496 1496 1496
1474 1473 1468 1468 1471 1473 1473 1475 1474 1469 1465 1464 1460 1446 1443 1437 1434 1429 1431 1433 1435 1439 1442 1447 1451 1457 1461 1465 1470 1472 1476 1479 1482 1485 1487 1489 1491 1492 1493 1494 1494 1494 1495 1495
1472 1463 1462 1467 1467 1471 1469 1473 1471 1470 1464 1455 1458 1436 1440 1432 1429 1425 1424 1425 1429 1430 1433 1440 1444 1449 1453 1460 1465 1468 1472 1475 1478 1480 1483 1487 1489 1491 1491 1492 1493 1494 1493 1493
1463 1457 1459 1461 1463 1466 1460 1460 1461 1463 1468 1469 1455 1443 1435 1431 1427 1422 1421 1422 1423 1426 1431 1434 1437 1442 1447 1455 1462 1466 1469 1472 1476 1479 1481 1483 1485 1486 1488 1489 1491 1492 1492 1490
1453 1452 1457 1456 1455 1457 1447 1455 1460 1459 1462 1461 1449 1465 1427 1426 1426 1423 1418 1417 1418 1420 1422 1425 1430 1437 1444 1452 1458 1462 1467 1470 1473 1477 1480 1482 1485 1488 1488 1489 1489 1490 1491 1489
1452 1449 1448 1449 1448 1453 1453 1454 1454 1453 1459 1466 1437 1455 1420 1428 1423 1416 1414 1412 1414 1415 1418 1423 1429 1435 1444 1452 1457 1461 1465 1469 1473 1476 1480 1484 1484 1485 1486 1487 1488 1489 1489 1488
1454 1450 1444 1443 1449 1450 1455 1462 1476 1468 1465 1446 1434 1443 1419 1416 1414 1415 1414 1410 1408 1411 1413 1416 1422 1432 1443 1449 1457 1461 1465 1467 1471 1475 1480 1483 1483 1485 1486 1486 1487 1488 1488 1487
1460 1457 1448 1446 1447 1447 1449 1456 1462 1457 1452 1443 1431 1433 1423 1415 1417 1416 1416 1414 1410 1410 1414 1416 1422 1429 1441 1450 1456 1460 1463 1466 1469 1473 1476 1481 1481 1483 1485 1486 1486 1485 1485 1484
1459 1455 1444 1443 1441 1443 1443 1450 1436 1446 1441 1447 1440 1432 1418 1422 1424 1425 1423 1420 1417 1418 1422 1427 1429 1436 1444 1450 1455 1459 1462 1465 1469 1473 1475 1479 1481 1482 1483 1485 1485 1485 1482 1481
1449 1455 1444 1443 1441 1439 1440 1440 1447 1454 1449 1440 1437 1437 1441 1439 1433 1432 1434 1432 1429 1431 1430 1431 1435 1440 1446 1450 1453 1458 1461 1461 1470 1473 1475 1478 1479 1480 1482 1484 1484 1484 1482 1480
1448 1460 1452 1445 1442 1444 1442 1444 1454 1453 1450 1440 1432 1440 1446 1448 1444 1442 1443 1441 1440 1437 1437 1439 1437 1439 1444 1449 1453 1456 1456 1464 1469 1470 1472 1475 1476 1477 1479 1480 1483 1483 1481 1479
1451 1453 1459 1449 1441 1438 1440 1446 1448 1453 1449 1448 1443 1439 1448 1448 1448 1449 1452 1446 1448 1450 1448 1444 1441 1440 1445 1447 1451 1453 1458 1461 1465 1467 1470 1472 1474 1476 1476 1478 1480 1481 1480 1478
1452 1461 1467 1448 1444 1441 1446 1451 1455 1456 1461 1456 1455 1439 1443 1447 1448 1448 1446 1441 1443 1445 1451 1451 1448 1443 1441 1447 1449 1450 1453 1458 1461 1465 1469 1470 1472 1475 1475 1477 1478 1479 1478 1477
1448 1449 1456 1459 1445 1444 1448 1445 1446 1452 1460 1450 1447 1437 1437 1439 1441 1441 1440 1436 1434 1431 1427 1444 1449 1444 1443 1443 1444 1448 1450 1454 1459 1462 1465 1469 1472 1473 1473 1474 1475 1476 1477 1476
1449 1452 1449 1443 1443 1444 1443 1443 1442 1444 1442 1447 1438 1432 1429 1427 1430 1429 1428 1426 1426 1425 1431 1429 1432 1436 1440 1440 1444 1448 1448 1449 1454 1457 1460 1465 1470 1472 1471 1471 1474 1474 1475 1474
1446 1450 1448 1445 1440 1441 1441 1439 1437 1436 1436 1433 1431 1425 1423 1422 1425 1423 1421 1414 1414 1420 1422 1422 1425 1434 1438 1442 1444 1443 1445 1450 1452 1453 1457 1462 1465 1469 1468 1470 1472 1472 1472 1473
1446 1446 1447 1442 1441 1440 1453 1433 1432 1436 1430 1429 1432 1423 1423 1419 1416 1414 1415 1408 1406 1411 1412 1414 1415 1422 1428 1434 1442 1442 1443 1446 1449 1453 1454 1459 1464 1465 1466 1467 1470 1470 1470 1471
1441 1444 1450 1446 1441 1456 1428 1424 1423 1426 1426 1425 1424 1423 1423 1421 1418 1413 1414 1406 1401 1404 1405 1407 1410 1417 1427 1436 1443 1444 1445 1444 1450 1450 1453 1458 1463 1464 1465 1465 1466 1470 1470 1469
1433 1440 1444 1442 1439 1430 1422 1419 1420 1423 1425 1424 1424 1423 1422 1420 1418 1415 1411 1401 1399 1399 1399 1401 1405 1410 1422 1432 1435 1437 1442 1439 1450 1452 1454 1459 1460 1461 1462 1463 1466 1469 1468 1468
1430 1433 1437 1440 1444 1447 1422 1417 1417 1419 1431 1423 1423 1422 1421 1418 1420 1412 1406 1403 1402 1402 1401 1399 1404 1411 1420 1429 1434 1431 1437 1439 1448 1455 1455 1458 1460 1459 1460 1464 1466 1466 1467 1468
1430 1435 1431 1435 1436 1428 1416 1418 1418 1430 1430 1420 1420 1419 1415 1416 1412 1407 1406 1404 1403 1404 1405 1406 1410 1413 1419 1424 1427 1432 1435 1435 1447 1453 1455 1457 1459 1459 1460 1464 1465 1466 1466 1467
1421 1437 1439 1439 1439 1436 1412 1415 1421 1417 1414 1416 1416 1412 1409 1407 1405 1404 1403 1403 1404 1407 1410 1412 1416 1419 1424 1425 1426 1430 1430 1439 1449 1450 1452 1456 1458 1459 1460 1462 1464 1466 1465 1466
1415 1410 1418 1421 1421 1407 1407 1410 1411 1412 1411 1409 1409 1405 1403 1401 1401 1403 1403 1403 1404 1408 1412 1415 1417 1420 1422 1425 1429 1429 1434 1441 1445 1448 1452 1455 1459 1460 1460 1462 1462 1465 1465 1464
1405 1402 1408 1409 1405 1405 1405 1408 1410 1409 1408 1406 1403 1400 1400 1399 1399 1398 1401 1403 1403 1409 1412 1413 1415 1418 1421 1424 1428 1432 1436 1440 1444 1448 1451 1454 1457 1459 1460 1462 1462 1464 1463 1462
1402 1400 1402 1405 1401 1401 1401 1404 1404 1404 1404 1401 1400 1397 1395 1395 1394 1394 1392 1397 1401 1404 1408 1411 1412 1415 1419 1423 1428 1433 1437 1442 1444 1448 1451 1453 1456 1459 1459 1460 1461 1461 1461 1461
1396 1397 1399 1402 1395 1398 1398 1400 1400 1399 1398 1396 1395 1392 1389 1389 1389 1389 1392 1394 1397 1401 1405 1409 1412 1416 1420 1425 1429 1433 1437 1442 1445 1447 1450 1452 1455 1457 1458 1459 1459 1458 1458 1458
Wind_Speed
4 3 8 14 8 7 5 8 9 11 17 6 14 17 15 22 7 12 23 24 34 43 43 42 43 41 39 36 32 27 24 24 23 23 20 17 13 9 5 3 1 4 6 7
4 10 8 6 6 11 13 15 14 10 15 8 11 17 11 9 8 12 26 31 38 34 39 42 44 44 44 40 33 28 24 23 22 20 19 17 14 12 8 4 1 3 5 7
10 7 3 6 10 9 12 13 11 15 13 18 5 24 6 7 8 13 16 32 33 44 44 44 45 49 48 41 35 30 25 22 23 22 21 19 17 14 10 6 2 3 4 7
9 9 15 15 13 8 20 10 14 17 10 10 6 19 4 5 9 7 14 18 29 37 40 46 50 52 49 41 34 29 25 23 22 21 20 20 19 17 12 7 4 3 4 7
7 3 3 8 14 12 21 6 6 7 8 4 12 5 1 4 6 8 8 17 21 32 42 49 55 53 47 40 34 28 24 21 20 19 19 21 18 14 10 7 5 3 4 7
9 11 6 8 9 10 3 4 6 4 4 8 12 8 21 10 8 6 9 24 23 25 38 42 45 48 43 37 33 27 23 20 18 18 18 17 17 15 12 9 7 5 4 7
5 5 4 9 11 7 6 3 4 5 4 14 7 7 15 3 5 4 9 20 27 17 37 43 44 46 42 39 31 24 20 20 18 17 16 16 15 13 11 9 6 4 5 7
2 5 0 4 3 5 6 9 11 8 8 11 5 7 6 3 6 8 8 7 4 20 30 37 43 49 42 34 27 23 21 19 18 16 16 16 14 12 10 7 4 3 4 7
5 5 3 6 4 3 3 5 16 15 14 5 6 7 6 9 10 10 11 13 17 21 25 31 39 42 35 29 26 23 21 18 15 15 16 14 11 9 6 4 1 3 4 6
2 5 2 4 2 4 2 2 3 1 8 13 5 3 2 14 13 8 8 13 13 17 27 38 39 35 31 29 25 20 18 14 15 15 14 12 9 7 4 1 2 3 4 5
6 1 5 3 3 1 3 1 2 5 3 7 12 4 6 12 16 15 8 13 9 17 27 36 35 33 31 27 26 18 16 18 17 14 12 11 10 7 4 3 3 2 4 5
3 1 4 7 6 2 3 3 3 2 3 3 1 3 7 11 9 16 19 24 20 1 6 18 29 31 30 27 22 17 18 17 15 14 13 11 9 6 3 2 1 2 4 5
1 1 3 7 3 3 5 3 3 4 2 2 3 2 3 11 9 10 12 8 6 0 6 10 21 28 29 28 22 21 21 19 19 17 14 11 8 5 4 4 1 2 3 5
8 8 8 7 4 3 2 4 8 6 2 3 6 9 6 9 13 15 26 23 19 19 22 20 25 29 29 31 29 27 25 22 20 17 13 9 7 5 5 4 2 2 4 6
3 6 7 13 5 4 5 9 8 11 9 7 10 13 11 6 13 19 29 28 26 27 32 26 31 40 39 35 32 29 25 24 21 18 15 11 7 6 6 4 3 2 4 5
3 4 3 4 8 5 10 10 10 10 10 11 14 17 2 6 12 18 24 26 30 27 34 34 34 41 40 36 34 30 26 24 21 18 15 11 9 7 5 4 3 2 3 5
3 4 4 4 2 0 3 12 12 5 6 6 6 6 3 10 8 8 10 6 14 26 35 38 40 42 45 41 35 31 27 25 20 18 14 11 10 9 7 5 3 0 3 6
5 5 3 3 0 3 5 4 2 5 5 3 5 7 7 7 7 9 11 14 13 15 22 33 36 38 42 39 33 27 26 21 18 15 14 13 11 8 6 5 2 1 3 5
9 6 3 3 5 4 8 3 4 3 4 3 4 6 5 12 2 11 19 20 18 16 12 25 31 38 42 39 36 30 21 19 18 16 15 14 10 8 6 4 3 1 4 5
10 4 6 3 3 5 2 3 6 2 5 1 3 5 5 7 1 6 20 16 13 11 12 22 30 37 42 39 29 27 26 24 19 16 15 12 10 8 7 5 3 4 4 4
5 4 11 7 4 6 5 3 3 5 4 4 8 12 13 4 6 13 17 9 8 8 13 22 28 37 41 36 30 26 25 22 18 17 14 12 10 8 6 5 5 4 4 3
6 6 4 4 6 10 9 2 3 5 7 7 10 16 20 18 16 6 11 11 9 10 15 22 30 36 31 28 27 26 22 20 20 16 14 13 10 8 7 6 6 5 4 4
4 6 5 7 6 6 6 7 5 8 13 10 11 15 18 18 16 12 14 15 11 14 19 23 29 30 28 25 23 24 23 23 19 16 14 13 10 8 7 7 7 6 5 5
3 3 3 3 4 5 4 6 18 22 20 16 15 14 14 18 18 17 15 14 15 20 21 23 24 25 25 23 23 18 21 20 18 16 15 14 11 9 9 7 7 6 5 3
4 6 6 3 3 5 12 14 18 10 19 18 20 19 18 19 20 21 19 19 18 20 21 21 22 23 24 25 21 20 19 19 17 15 15 15 13 11 9 8 6 4 2 2
5 5 4 5 9 6 14 22 23 25 25 29 30 26 26 23 24 24 21 20 21 24 24 24 26 25 26 25 23 21 19 18 17 17 17 15 14 13 10 8 6 2 1 4
Wind_Direction
255 159 208 229 203 232 244 243 253 269 283 304 281 283 278 277 262 214 219 211 207 213 212 210 213 212 205 202 200 199 201 201 202 196 192 187 189 191 201 206 274 348 0 357
324 242 231 230 196 223 239 260 268 273 268 266 275 275 256 263 254 215 215 213 216 209 210 208 210 208 206 203 196 200 198 199 197 198 191 191 192 185 193 194 261 343 345 352
227 226 20 230 242 244 239 236 255 262 283 284 282 282 272 256 243 253 234 229 220 216 210 206 207 203 202 198 195 195 193 194 193 193 191 190 189 189 191 193 239 302 332 341
246 210 230 257 247 236 260 220 246 257 265 266 181 280 266 230 251 245 244 230 225 220 214 207 201 199 199 193 191 193 189 188 190 193 197 200 194 188 188 198 217 268 317 338
220 138 229 235 248 232 266 223 247 246 247 249 240 252 0 194 250 264 264 266 239 225 217 210 202 200 191 187 186 185 183 183 185 187 192 193 190 192 187 189 211 246 303 326
255 260 231 255 255 233 294 302 309 252 167 234 249 192 271 244 230 233 249 261 271 234 215 201 196 195 181 180 179 176 173 170 175 181 182 190 192 187 186 196 217 242 290 316
337 277 246 221 253 262 259 70 302 268 198 251 182 205 238 239 246 238 266 286 290 254 199 191 187 180 173 169 168 167 169 164 170 175 178 184 182 185 193 199 212 243 286 312
229 307 5 359 206 200 240 193 223 246 235 258 244 233 245 95 72 51 62 58 70 157 171 169 171 169 163 160 163 166 168 163 165 168 169 175 175 180 186 191 204 250 303 325
187 247 263 290 196 153 282 204 232 240 258 253 256 300 303 37 32 33 48 73 99 125 139 144 152 155 155 162 166 164 162 160 159 166 170 171 169 171 178 182 227 303 327 326
318 305 263 289 321 233 343 360 312 0 219 242 224 250 345 359 359 22 23 60 91 123 139 150 154 157 164 165 160 163 163 158 167 170 166 163 164 170 177 229 303 298 310 327
133 195 285 360 275 212 1 25 8 302 160 241 248 193 78 40 29 25 38 56 101 145 154 158 160 166 163 164 162 163 165 168 166 169 169 172 170 166 176 222 261 315 345 339
305 161 271 238 272 81 87 108 110 198 336 327 355 136 78 28 14 5 18 38 32 33 193 177 169 163 167 164 164 164 173 177 176 182 178 173 168 170 181 195 203 332 339 342
267 20 332 319 33 45 70 91 107 141 81 326 298 207 263 351 308 260 218 197 239 35 274 213 184 178 175 177 182 181 180 178 177 177 179 170 169 179 171 173 193 327 348 356
252 197 188 223 229 152 212 187 182 153 219 218 225 270 218 214 245 236 228 202 199 189 177 212 223 202 192 189 186 182 176 182 180 177 177 175 181 176 162 159 177 279 333 346
199 207 233 248 265 227 264 267 238 210 216 213 261 268 282 227 216 240 226 205 202 200 195 201 211 205 197 190 187 184 182 180 179 179 176 173 173 171 165 172 208 273 321 346
197 239 194 250 257 233 246 242 231 241 258 253 257 265 299 301 249 238 241 203 208 212 213 216 212 205 199 194 189 185 180 177 178 173 170 172 174 182 182 189 200 229 349 351
197 164 207 248 32 80 306 251 235 207 225 223 236 262 351 307 305 294 292 266 246 221 230 221 218 211 201 195 190 184 178 174 174 175 167 171 175 178 172 162 173 21 356 359
166 157 167 243 166 215 232 196 197 217 240 224 269 299 296 271 276 278 309 310 296 270 250 224 215 202 196 189 186 182 175 169 176 176 167 169 175 175 160 150 124 19 12 16
210 178 207 230 220 286 280 201 154 107 289 5 317 347 331 333 197 280 301 305 294 290 242 218 208 196 189 185 186 178 183 174 175 171 168 174 171 158 146 140 123 63 39 38
204 187 204 163 206 224 209 145 131 144 272 20 3 320 307 323 271 264 310 292 284 268 221 196 191 190 186 183 187 190 178 167 174 173 171 170 159 146 143 136 119 98 84 58
171 186 222 227 230 272 199 232 283 154 233 226 280 287 292 234 252 282 290 240 242 234 194 190 191 188 182 187 187 183 176 166 174 177 170 161 153 143 136 136 124 113 103 69
161 153 190 177 198 245 189 178 171 211 266 267 287 309 312 296 297 257 207 200 197 207 192 190 185 183 187 185 184 177 167 166 175 173 167 163 156 151 141 137 132 130 122 101
190 184 174 174 204 217 152 189 239 265 258 257 288 317 309 285 265 239 202 193 190 192 188 189 189 189 184 185 181 164 163 177 175 171 168 166 167 162 147 145 139 156 136 115
243 155 170 127 213 211 209 272 293 285 271 283 285 304 300 270 257 235 219 198 180 181 181 183 183 178 171 168 166 177 176 180 177 174 173 174 179 174 161 158 156 153 130 93
202 143 170 246 282 316 287 283 278 268 294 282 285 288 283 266 251 235 211 199 198 194 190 190 183 179 171 173 182 180 184 186 183 184 182 181 186 186 171 174 173 146 112 30
198 189 167 216 177 211 262 281 278 276 278 284 287 279 281 257 245 232 223 212 205 196 192 185 174 180 178 184 181 183 193 198 199 192 191 191 191 190 191 196 187 164 333 331